This is the latest recevied weather packets stored in our database for station/object PY2UEP-1. If no packets are shown the sender has not sent any weather packets the latest 10 day(s).
| Time | Temp. | Humidity | Pressure | Rain* | Wind** | Luminosity | Snow |
|---|---|---|---|---|---|---|---|
| 1787611866 | 20° C | 60% | 1019.7 hPa | 0 mm | - | - | - |
| 1787611566 | 20.56° C | 58% | 1019.7 hPa | 0 mm | - | - | - |
| 1787611266 | 20.56° C | 57% | 1019.5 hPa | 0 mm | - | - | - |
| 1787610966 | 20.56° C | 58% | 1019.5 hPa | 0 mm | - | - | - |
| 1787610666 | 20.56° C | 57% | 1019.4 hPa | 0 mm | - | - | - |
| 1787610366 | 20.56° C | 58% | 1019.4 hPa | 0 mm | - | - | - |
| 1787610066 | 20° C | 59% | 1019.4 hPa | 0 mm | - | - | - |
| 1787609766 | 20° C | 60% | 1019.4 hPa | 0 mm | - | - | - |
| 1787609466 | 20.56° C | 59% | 1019.4 hPa | 0 mm | - | - | - |
| 1787609166 | 20.56° C | 58% | 1019.4 hPa | 0 mm | - | - | - |
| 1787608866 | 20.56° C | 57% | 1019.2 hPa | 0 mm | - | - | - |
| 1787608566 | 20.56° C | 58% | 1019.2 hPa | 0 mm | - | - | - |
| 1787608266 | 20.56° C | 57% | 1019.2 hPa | 0 mm | - | - | - |
| 1787607966 | 21.11° C | 57% | 1019.3 hPa | 0 mm | - | - | - |
| 1787607666 | 21.11° C | 56% | 1019.2 hPa | 0 mm | - | - | - |
| 1787607366 | 21.11° C | 56% | 1019.2 hPa | 0 mm | - | - | - |
| 1787607066 | 21.67° C | 55% | 1019.1 hPa | 0 mm | - | - | - |
| 1787606766 | 21.67° C | 54% | 1019 hPa | 0 mm | - | - | - |
| 1787606466 | 21.67° C | 54% | 1018.9 hPa | 0 mm | - | - | - |
| 1787606166 | 21.67° C | 53% | 1018.9 hPa | 0 mm | - | - | - |
| 1787605866 | 21.67° C | 53% | 1018.9 hPa | 0 mm | - | - | - |
| 1787605566 | 22.22° C | 52% | 1018.9 hPa | 0 mm | - | - | - |
| 1787605266 | 22.22° C | 52% | 1018.9 hPa | 0 mm | - | - | - |
| 1787604966 | 22.22° C | 51% | 1018.9 hPa | 0 mm | - | - | - |
| 1787604665 | 22.78° C | 51% | 1018.8 hPa | 0 mm | - | - | - |
* Rain since midnight (hover to see other rain measurements)
** Current wind speed in m/s (hover to see current wind gust speed)